Location: Stuttgart
(48.8069°N, 9.1544°E)
Time: 03:41:44
(UTC+02:00)

ISS - Pass Details

Date: 14 May 2021
Orbit: 417 x 422 km, 51.6° (Epoch: 15 June)

Event Time Altitude Azimuth Distance (km) Brightness Sun altitude
Exits shadow 02:50:38 - 289° (WNW) 1,664 -0.8 -19.6°
Reaches altitude 10° 02:51:02 10° 290° (WNW) 1,508 -1.0 -19.6°
Maximum altitude 02:54:22 58° 10° (N) 498 -3.2 -19.3°
Drops below altitude 10° 02:57:43 10° 91° (E) 1,508 -0.7 -19.1°
Sets 02:59:51 0° 96° (E) 2,372 0.3 -19.0°
